Location: Gleizolles
(44.4833°N, 6.7667°E)
Time: 13:02:34
(UTC+00:00)

Vanguard 1 - Pass Details

Date: 27 June 2024
Orbit: 650 x 3826 km, 34.3° (Epoch: 15 July)

Event Time Altitude Azimuth Distance (km) Brightness Sun altitude
Rises 09:42:04 0° 234° (SW) 6,295 14.1 58.5°
Reaches altitude 10° 09:47:24 10° 226° (SW) 4,720 13.6 59.3°
Maximum altitude 09:57:20 32° 170° (S) 2,263 12.9 60.7°
Drops below altitude 10° 10:03:26 10° 109° (ESE) 2,849 13.0 61.6°
Sets 10:05:49 0° 98° (E) 3,547 13.3 61.9°
